RH
71 74 74 79 89 90 92 89 80 75 75 74 69 76 87 79 64 55 59 68 68 61 49 41 35 31 32 28 26 22 25 44 50 47 46 32 23 20 15 16 12 7 10 15 15 11 10 11 10 8 7 7 6 7 6 5 5 6 8 9 10 8 5 3 3 4 4 6 6 6 5 8 14 15 16 14 17 21 20 24 30 33 43 57 65 61 55 62
62 61 62 67 74 77 78 70 62 63 63 62 62 66 68 60 50 48 57 65 64 57 43 35 31 32 32 28 29 27 38 60 55 39 29 17 16 16 12 12 7 5 12 18 16 11 9 9 8 7 6 7 6 6 6 6 6 7 7 8 9 6 4 3 5 5 5 7 6 6 5 8 14 15 14 16 17 16 19 24 28 33 41 53 62 63 54 55
55 54 57 60 64 65 64 58 56 57 56 57 59 59 52 46 39 36 48 55 54 46 33 27 24 29 30 28 32 37 55 65 47 30 19 12 13 14 13 11 5 5 12 18 15 9 8 8 7 6 6 6 5 5 6 6 5 6 7 7 7 5 5 4 6 7 6 7 6 6 5 7 12 12 12 14 16 15 19 22 27 36 41 46 52 54 53 53
51 53 55 57 59 58 57 55 54 54 55 55 52 47 39 32 24 25 40 45 45 39 30 25 23 28 29 26 33 50 68 59 31 18 15 13 14 13 13 11 6 6 12 19 16 10 7 7 7 6 6 7 6 5 6 6 5 5 6 7 6 5 6 5 6 7 7 7 6 6 5 7 9 11 12 11 15 18 18 18 23 34 38 41 44 48 58 65
50 51 52 52 51 51 54 53 53 53 52 48 41 34 29 24 18 24 38 42 44 37 27 23 20 25 27 24 35 59 68 44 19 15 16 15 15 14 14 13 9 8 15 20 15 10 8 7 7 6 6 8 6 6 6 5 5 5 5 6 5 5 6 5 6 6 7 6 6 6 5 6 8 11 11 10 19 20 16 15 17 27 34 37 42 55 69 75
46 45 46 45 42 46 49 49 49 46 42 36 30 27 24 19 17 28 38 40 43 37 30 24 19 22 21 25 43 64 59 30 18 18 16 16 17 18 15 12 11 11 17 20 15 9 8 8 8 7 7 8 7 7 6 4 5 6 6 5 4 6 6 6 6 6 7 7 6 5 4 5 6 9 9 14 23 18 15 16 15 21 28 32 40 54 65 72
40 39 41 40 40 44 44 43 41 36 33 29 26 24 20 17 19 31 37 40 41 39 35 25 22 22 20 37 57 63 47 23 20 21 17 18 18 19 17 12 11 13 17 18 13 7 7 8 7 7 7 8 8 6 5 4 4 6 6 5 4 5 6 6 7 6 6 6 6 5 5 5 5 7 7 12 19 15 16 18 17 22 24 30 39 46 55 64
36 37 38 38 41 44 42 37 33 30 27 25 23 20 18 18 23 32 37 39 40 40 38 27 25 25 27 49 56 44 31 20 23 22 16 18 18 18 16 14 15 17 17 15 9 5 7 7 6 7 6 6 6 5 5 4 5 5 5 5 5 4 4 5 6 6 6 6 5 5 5 5 5 6 6 8 11 9 12 16 16 19 21 26 33 42 53 59
34 35 36 38 41 43 40 34 29 26 23 21 19 17 18 22 28 34 36 37 38 39 36 29 27 24 34 55 46 25 17 18 23 21 17 19 19 18 17 18 18 17 15 11 6 5 6 6 5 5 5 5 5 4 5 6 6 5 4 5 5 5 5 5 6 6 6 5 5 6 6 5 4 5 6 6 7 8 8 10 12 12 18 24 28 44 57 59
31 33 34 37 41 43 39 34 30 25 23 22 19 18 21 27 34 37 36 36 36 37 34 30 28 28 45 59 43 22 14 15 21 21 18 19 18 18 18 18 15 10 9 7 5 6 6 6 5 5 5 5 5 4 4 5 5 4 4 4 4 5 5 5 6 6 6 5 5 5 5 5 4 4 7 6 6 8 7 8 10 8 16 23 25 39 52 55
29 32 33 36 41 42 40 36 32 29 28 26 23 23 27 35 40 36 35 34 34 36 34 30 25 31 53 54 31 17 13 15 18 18 17 17 18 18 15 13 11 7 5 5 6 6 6 6 5 5 5 5 5 4 5 5 4 5 5 5 5 5 5 5 5 6 5 5 5 5 5 5 5 5 6 6 5 7 7 9 10 8 12 20 25 36 46 51
28 30 31 37 41 41 39 36 35 35 33 31 28 29 32 37 38 33 32 32 33 32 30 30 24 36 56 41 19 13 13 16 16 15 16 16 17 16 12 10 9 8 6 6 5 6 6 6 5 6 6 6 5 5 5 4 4 5 5 6 6 4 5 5 5 5 5 5 4 4 6 5 5 5 4 4 5 7 8 7 9 9 9 17 26 33 42 48
27 28 31 37 40 40 39 37 38 38 37 35 31 32 34 35 34 31 30 30 30 26 27 29 26 48 58 25 8 13 13 14 14 15 16 14 13 12 11 10 9 8 7 7 6 6 6 6 5 6 6 5 5 5 5 4 4 5 4 5 5 5 5 4 5 5 5 5 4 5 7 7 5 4 4 4 6 8 8 7 7 8 7 16 25 28 38 45
26 28 31 37 39 38 37 35 37 37 38 37 34 33 32 32 30 29 29 27 27 25 27 27 28 53 50 13 6 13 11 12 13 13 13 12 10 8 10 9 8 7 6 7 6 6 6 6 6 6 6 5 5 5 5 5 5 5 5 5 5 6 5 4 4 5 5 5 3 5 7 7 5 4 4 4 6 7 8 7 7 8 7 13 22 28 36 39
25 26 31 37 37 36 34 33 34 34 36 38 36 35 33 32 29 27 28 25 24 24 26 32 38 47 31 8 9 11 10 12 11 11 11 10 8 7 8 7 7 7 6 6 6 6 6 6 6 6 7 5 5 5 5 5 5 5 6 6 5 5 5 4 4 5 5 5 3 6 7 6 5 4 5 4 5 6 7 8 7 8 7 10 21 30 32 31
24 26 32 36 34 34 32 30 31 32 34 36 37 37 35 33 29 26 26 24 23 22 29 42 46 39 20 8 11 11 11 11 8 9 8 8 8 6 7 6 7 6 6 7 6 6 6 6 6 7 7 6 6 6 6 6 6 6 6 7 6 5 5 4 5 5 4 4 4 6 6 6 5 5 5 4 5 6 7 8 8 8 8 9 20 28 29 31
24 26 32 36 33 31 30 29 31 31 31 31 31 32 32 32 29 27 26 25 24 24 31 37 34 29 18 11 14 12 9 8 7 8 7 8 8 6 6 7 7 6 6 7 6 7 6 7 7 7 7 6 6 6 8 10 10 8 7 8 6 5 5 5 5 5 4 4 4 5 6 6 6 5 5 5 6 6 7 8 8 9 9 9 14 24 31 35
24 26 32 35 32 30 29 29 31 32 31 29 27 28 29 29 27 26 29 30 30 34 37 32 26 25 18 12 13 10 7 8 8 8 7 8 7 7 7 7 7 6 7 7 7 7 7 7 8 7 9 9 8 9 12 13 12 12 11 10 9 6 6 5 5 5 4 4 4 5 6 6 5 5 5 7 6 6 7 8 9 8 9 10 10 19 32 34
23 25 33 34 30 30 28 30 34 34 33 32 33 37 37 36 31 29 34 35 31 31 30 24 21 20 15 10 9 8 8 9 9 9 8 8 8 8 8 7 7 7 8 9 8 7 8 8 9 12 15 15 12 11 12 12 10 11 10 10 10 8 7 5 4 5 4 5 5 5 5 5 5 4 5 7 7 7 7 7 8 8 8 9 8 16 29 32
23 25 33 34 31 30 28 30 32 32 35 35 39 46 43 38 33 30 32 29 21 15 13 13 12 11 10 8 8 8 10 10 10 8 8 9 9 8 8 8 8 9 10 10 8 7 7 9 12 18 20 15 12 11 10 10 9 9 9 9 8 8 8 6 5 4 3 4 5 4 5 4 4 4 5 6 6 7 8 9 9 7 8 9 9 15 23 29
22 25 32 33 31 30 30 28 26 30 34 33 42 47 33 26 28 27 24 19 12 10 9 8 8 10 10 8 8 9 10 10 9 8 8 9 9 10 10 8 9 10 10 9 8 7 8 11 14 17 16 12 11 11 9 9 10 11 10 9 8 7 6 5 5 4 4 5 5 4 5 5 4 4 4 5 5 7 8 11 12 11 13 16 20 27 34 39
23 25 31 33 31 30 30 26 25 29 30 35 49 43 22 20 26 24 24 20 12 10 10 9 9 10 9 10 10 9 10 11 10 9 8 8 10 10 8 8 9 10 9 8 9 10 11 15 15 14 13 12 11 10 10 12 13 14 14 13 11 8 7 6 4 4 4 5 6 6 6 5 4 4 4 5 7 8 10 13 15 19 23 25 30 43 55 61
23 24 29 33 30 29 30 26 27 29 31 40 44 30 18 22 24 23 27 26 16 11 10 10 11 10 10 11 9 10 11 11 11 11 9 9 11 10 8 9 9 10 10 9 10 12 12 14 14 14 12 12 13 12 13 14 14 16 19 21 17 12 15 13 7 6 5 5 7 7 7 7 5 5 5 8 11 11 14 18 20 24 29 28 30 42 57 69
22 23 28 32 30 30 29 26 28 32 34 34 26 18 19 24 25 26 27 26 16 11 11 10 11 10 10 11 9 11 11 10 12 11 10 10 10 10 10 10 10 11 12 11 11 11 12 13 14 14 14 15 16 15 17 19 21 24 23 25 24 18 18 16 11 9 5 4 6 6 10 9 6 6 6 11 20 22 22 26 28 29 29 30 33 40 51 62
22 23 26 29 30 30 29 29 29 27 26 23 19 20 22 24 27 28 30 31 21 14 13 11 12 12 11 12 11 11 10 10 12 11 11 11 10 12 12 11 12 12 12 12 12 12 12 14 15 16 17 17 17 19 22 24 28 32 28 25 24 21 20 19 17 16 13 12 12 10 13 14 13 17 19 24 31 32 31 31 32 32 32 35 36 37 43 52
21 23 23 26 28 26 30 32 25 20 20 20 21 22 22 25 30 31 35 36 24 17 17 14 15 15 14 13 10 11 14 14 12 12 12 11 10 12 13 13 12 13 14 13 13 14 13 14 15 18 19 17 18 21 23 22 25 31 31 25 22 22 22 21 21 22 25 27 24 17 14 21 34 38 33 35 38 37 37 36 34 34 34 37 37 37 37 41
20 23 22 24 24 24 31 32 24 22 23 22 24 22 23 29 33 35 41 39 25 17 17 14 14 15 14 12 10 13 19 16 12 13 12 12 11 11 14 16 13 14 12 13 19 20 16 16 16 17 18 17 18 20 19 16 19 23 24 22 21 21 22 22 23 23 27 27 24 20 13 23 49 51 38 38 43 43 41 40 38 34 34 34 35 36 34 34
20 21 23 25 24 24 27 28 29 28 25 25 25 23 26 33 34 36 46 46 29 18 17 14 13 13 12 12 10 13 16 13 14 15 11 11 13 12 13 14 14 14 11 14 22 20 16 18 18 17 18 17 17 16 13 12 16 18 16 17 19 20 21 22 23 24 25 27 29 24 16 31 56 54 41 44 52 53 46 42 41 37 35 35 34 33 31 34
18 20 24 25 25 26 26 28 32 29 24 25 27 26 30 36 36 40 48 42 24 18 18 16 15 14 12 12 12 13 12 13 15 14 10 12 14 12 13 13 13 14 11 14 20 17 16 17 16 17 17 17 15 13 12 12 15 14 13 17 18 17 19 19 23 25 25 32 36 25 20 39 57 54 47 51 58 60 51 44 41 37 35 35 35 34 31 34
18 21 25 26 31 38 37 35 34 28 24 28 32 33 34 36 39 47 48 35 24 21 17 16 17 14 13 14 16 14 12 13 13 11 11 13 13 12 11 11 12 14 12 14 16 14 14 15 15 16 16 16 14 12 12 12 12 12 15 20 22 27 31 27 25 25 30 39 36 25 25 38 56 65 62 55 54 53 48 44 40 36 35 35 35 34 32 34
19 22 25 27 33 39 40 37 32 29 28 34 38 35 35 38 40 46 42 27 24 23 18 18 17 14 15 16 17 15 13 15 14 12 12 12 15 16 15 15 14 15 16 16 15 12 13 17 16 14 13 13 14 14 13 12 13 15 18 23 29 42 49 42 32 32 42 43 32 26 33 46 65 75 65 49 44 43 42 44 41 38 39 37 34 33 32 31
24 25 26 27 28 31 37 35 32 33 33 39 41 34 38 42 38 38 32 22 25 26 22 21 17 15 16 16 17 16 13 16 15 13 12 12 17 19 19 20 17 18 23 21 15 12 13 17 15 12 12 12 15 18 16 16 18 21 24 26 34 46 50 46 41 43 46 41 31 26 32 58 80 76 63 52 42 39 39 40 40 38 39 39 35 34 34 32
29 26 27 29 27 31 36 32 33 38 38 43 41 33 40 42 31 27 23 23 30 25 19 20 17 16 16 16 21 19 14 17 15 12 13 12 18 19 17 18 16 18 23 21 19 16 16 18 15 12 13 12 16 21 23 23 23 26 28 30 39 46 50 57 59 57 51 44 40 27 30 67 87 75 70 62 42 36 38 37 39 38 37 39 37 35 35 34
29 29 30 27 25 30 33 32 37 41 40 43 40 38 47 42 27 24 24 24 24 18 17 19 16 18 20 19 21 17 16 20 14 10 13 14 19 22 18 17 17 17 19 21 23 21 21 22 17 14 15 15 15 20 23 23 22 26 26 28 38 40 46 63 72 66 55 47 44 34 43 77 88 79 79 65 39 32 35 35 37 37 35 37 37 36 36 35
27 26 26 28 35 38 35 34 37 38 37 37 37 41 46 42 33 32 32 27 21 19 21 17 13 19 23 21 17 13 14 17 13 12 17 18 21 23 20 20 19 16 20 26 25 20 21 23 17 13 14 14 16 17 18 21 25 26 23 26 32 30 33 45 54 54 48 43 45 49 61 75 76 76 73 56 38 33 34 34 34 36 36 37 38 38 37 36
28 29 32 40 45 38 31 30 34 38 34 32 37 38 33 33 34 33 32 28 22 22 24 22 19 21 23 20 17 15 13 13 14 16 20 22 23 22 20 21 21 17 19 26 27 23 24 24 18 14 14 14 16 16 15 22 29 26 25 29 28 23 26 33 40 41 40 44 48 57 74 77 72 71 57 41 37 35 33 33 34 38 39 39 41 40 39 40
35 41 40 39 34 27 24 24 29 35 30 30 40 36 25 26 29 26 25 24 22 21 26 33 29 23 24 23 18 14 13 14 16 17 19 24 27 25 20 18 20 18 16 20 25 24 25 27 20 14 16 14 13 15 15 17 22 25 31 33 26 25 27 29 38 38 38 51 53 55 71 73 72 75 58 41 39 38 35 32 33 40 42 42 43 42 42 43
39 41 32 25 22 20 22 26 29 29 27 32 36 28 22 26 26 24 23 22 24 24 27 33 29 21 22 24 20 14 11 13 16 16 18 24 31 29 23 19 18 16 14 17 23 21 22 29 24 14 15 15 12 15 19 16 15 20 28 25 27 42 44 36 41 41 39 50 56 62 72 64 59 64 55 44 41 39 38 35 35 41 45 46 45 44 44 44
37 37 30 24 20 19 23 28 28 27 32 38 33 23 23 25 23 23 22 22 27 29 30 30 24 21 20 19 17 14 12 14 16 18 20 25 32 31 24 20 17 15 15 18 23 22 23 31 30 16 12 16 16 18 25 25 18 16 20 21 26 41 46 39 41 40 36 44 56 72 82 69 55 50 46 43 41 39 42 42 41 43 45 45 44 43 45 46
32 34 32 23 17 20 25 27 29 34 38 36 28 23 24 22 21 21 21 24 28 29 32 29 24 24 24 20 16 12 14 17 16 18 21 23 30 32 24 19 16 16 18 19 22 25 25 32 35 23 11 18 26 25 26 28 25 21 22 29 32 33 37 40 38 32 32 41 50 60 72 69 53 42 41 42 38 38 44 45 45 45 44 43 43 43 45 46
33 35 31 21 19 21 25 29 33 36 33 26 22 22 22 21 21 21 20 23 23 22 24 26 25 26 25 25 22 14 15 19 16 17 20 20 25 29 23 17 16 18 22 22 23 27 31 34 40 34 18 19 28 26 23 25 26 25 25 29 32 33 43 53 48 37 33 41 44 46 63 69 51 39 40 38 36 39 42 44 46 46 45 44 43 44 44 46
34 35 28 22 22 22 28 34 30 25 24 22 20 20 22 22 20 19 20 20 19 20 22 22 23 26 24 25 23 16 18 21 17 17 20 20 23 25 20 17 18 20 24 31 30 30 35 35 37 36 23 18 24 24 23 25 21 20 24 27 27 31 44 57 60 51 40 41 39 39 63 75 52 38 40 36 36 39 38 42 46 45 45 44 42 42 43 45
32 32 26 23 22 22 31 32 22 21 23 20 18 18 20 21 19 17 18 20 22 24 25 21 20 25 26 24 23 18 19 22 19 16 19 23 22 21 19 20 23 23 27 37 36 33 39 36 32 34 26 18 23 24 23 23 20 20 22 25 28 31 38 46 53 50 46 50 43 38 65 80 53 36 39 35 34 37 38 41 43 44 44 42 40 41 41 43
30 24 21 23 21 23 32 28 19 23 25 21 21 22 21 21 20 20 20 23 25 27 29 25 22 26 25 22 21 17 16 25 26 16 15 22 23 20 21 24 26 26 29 36 35 34 44 40 30 35 37 29 28 31 32 32 27 25 25 26 28 30 35 41 40 40 46 53 48 47 69 75 49 34 35 32 31 37 39 38 39 42 43 40 39 40 39 40
31 23 17 19 19 20 27 24 20 24 26 28 28 26 24 20 18 20 19 21 24 28 32 26 19 23 23 21 23 17 14 23 28 21 16 22 24 20 21 24 23 20 23 32 32 30 40 40 30 34 42 40 40 42 43 40 32 28 27 29 28 28 36 41 38 42 50 51 51 60 69 63 45 34 32 30 31 37 40 39 38 40 41 40 40 39 38 38
33 27 19 19 19 17 22 21 21 24 27 31 32 30 30 23 17 17 18 21 25 26 30 26 21 25 25 24 27 22 14 17 24 25 20 22 25 19 16 22 21 18 26 36 36 32 37 40 34 34 37 36 36 36 35 35 35 32 29 29 30 31 35 38 39 47 50 49 55 62 56 49 44 37 32 31 33 37 41 41 40 39 40 40 39 38 38 37
31 29 23 24 22 17 19 19 20 24 25 28 30 30 32 28 22 20 18 21 24 25 30 30 27 31 32 31 32 26 19 20 23 25 22 20 22 19 16 20 21 26 36 37 32 31 37 40 37 34 31 28 28 29 29 31 34 33 31 32 33 33 35 39 43 44 42 46 55 50 40 43 44 36 32 33 32 34 38 39 38 39 39 39 38 38 37 36
29 28 24 30 31 23 19 20 23 26 27 29 29 30 34 32 28 26 21 18 20 25 32 33 30 31 32 32 35 30 25 28 28 25 26 25 21 19 22 22 20 26 31 26 22 28 35 38 37 33 29 27 26 27 29 32 33 33 32 32 32 32 35 39 39 38 39 45 48 39 35 42 42 34 32 31 29 30 31 31 32 34 35 37 38 38 38 37
29 29 24 26 32 31 29 28 27 27 28 28 28 31 35 33 31 28 20 20 25 25 28 32 32 31 28 29 36 37 34 39 40 33 30 30 24 22 26 24 18 20 23 23 25 28 32 35 34 30 27 26 26 28 31 34 34 34 32 29 29 29 31 33 34 35 36 37 36 35 35 38 38 34 31 28 27 27 25 26 30 33 35 37 38 38 38 36
39 41 38 28 24 29 31 29 26 25 28 26 24 29 34 34 33 25 18 26 34 28 24 30 31 29 29 30 36 40 35 37 44 39 33 36 32 25 26 24 17 18 23 28 28 28 30 32 30 29 28 28 31 34 35 34 32 32 31 28 28 29 29 32 34 35 36 35 34 36 39 39 37 32 28 27 27 26 24 27 34 38 39 41 40 37 36 35
42 38 40 35 29 27 25 26 24 24 26 24 23 29 33 33 32 26 20 23 29 28 26 29 28 26 28 31 36 41 34 28 33 33 29 34 31 24 24 22 17 18 23 27 28 28 30 30 28 29 28 30 35 37 34 33 32 32 33 30 31 33 33 33 34 33 36 39 40 42 45 44 37 30 29 28 26 27 27 29 36 41 42 41 38 34 34 36
51 40 33 33 34 31 23 23 23 23 27 26 24 26 27 27 26 24 23 20 18 22 24 24 28 30 33 38 42 40 30 23 26 24 21 23 21 18 19 18 16 19 20 23 27 29 31 31 29 29 27 27 35 36 30 30 33 38 40 34 32 33 31 31 32 32 33 38 42 44 44 42 36 32 31 29 27 27 29 33 40 44 42 39 34 30 31 34
Wind_Speed
13 13 13 12 12 12 13 13 13 13 13 13 13 12 12 11 11 10 9 8 9 8 7 6 6 6 7 7 8 9 10 10 10 11 11 6 7 6 2 7 8 8 12 11 11 11 11 12 12 12 10 8 7 7 8 8 5 5 5 7 7 8 10 3 1 4 1 4 5 4 2 5 1 8 6 7 6 6 8 10 8 8 10 13 16 17 17 9
13 13 12 12 13 13 13 13 14 14 13 13 12 12 11 11 11 10 9 9 9 8 7 6 6 7 8 8 8 9 10 10 13 12 5 1 3 3 3 5 7 11 15 12 11 11 10 9 10 11 9 7 7 7 7 6 6 6 5 7 8 10 8 4 6 5 4 5 5 3 2 4 2 5 5 6 6 7 8 10 8 5 8 12 14 16 14 11
13 13 13 13 13 13 14 14 14 14 13 12 12 11 11 10 10 10 9 9 9 8 7 7 7 8 7 7 8 8 9 11 11 5 4 3 1 1 2 4 8 13 17 13 8 9 9 8 9 9 8 7 6 7 6 6 6 7 7 8 7 9 9 8 9 7 8 5 2 3 2 2 1 5 4 4 7 7 7 7 10 6 7 10 9 12 11 7
13 13 13 13 14 14 14 14 14 14 13 12 11 11 10 10 10 9 9 9 9 8 8 7 7 8 7 7 7 7 7 10 2 8 7 4 3 3 3 4 8 15 17 13 13 10 10 7 8 8 8 7 6 6 5 5 7 6 8 10 6 8 10 5 3 2 5 5 3 4 5 4 2 6 2 2 5 6 5 5 9 11 11 11 10 10 9 9
13 13 14 14 15 15 14 14 14 13 12 11 11 10 10 10 9 9 9 8 9 8 8 7 8 8 8 8 6 4 7 4 5 10 7 4 4 5 4 2 7 12 12 14 15 10 9 8 6 7 7 7 7 7 6 7 8 6 8 15 11 10 10 3 1 2 4 4 3 6 7 1 2 6 3 2 6 3 3 6 7 11 14 14 13 10 9 13
14 14 14 15 15 15 15 14 13 12 12 11 10 10 10 10 9 9 8 9 9 8 9 8 8 8 8 8 5 4 7 2 6 8 8 4 3 3 2 2 5 9 10 15 14 7 7 8 6 7 7 7 9 6 7 9 8 6 7 12 8 7 11 4 1 1 3 6 8 7 4 5 5 5 5 4 11 7 9 11 6 10 13 14 15 11 9 13
14 14 15 15 15 15 15 14 13 12 12 11 10 10 10 10 9 8 8 9 9 9 9 9 9 8 7 8 5 6 7 4 8 7 7 4 3 2 2 3 6 9 10 14 11 6 6 7 7 7 7 8 8 7 9 10 8 7 8 9 6 9 10 4 2 2 2 8 9 5 4 2 10 2 4 4 10 9 14 19 13 14 16 14 16 13 13 14
14 14 15 15 16 15 15 14 13 12 12 11 10 10 9 9 8 8 8 8 9 9 9 9 9 8 6 6 6 7 1 7 9 6 3 5 3 2 3 5 9 11 14 16 10 6 6 8 8 8 8 7 5 5 5 6 7 8 10 9 5 7 9 6 4 3 3 7 7 6 5 6 9 2 3 5 9 7 10 18 16 17 18 15 16 15 13 13
13 14 15 16 16 15 15 14 13 12 11 10 9 9 8 8 7 7 8 8 9 9 9 9 8 8 6 5 8 4 5 8 8 6 3 6 4 4 6 8 12 14 15 13 9 6 5 6 7 6 8 6 4 5 2 4 6 7 11 9 6 5 7 8 6 6 7 6 7 8 8 9 9 5 2 4 6 10 7 10 11 14 17 14 13 14 12 11
13 14 15 15 16 15 14 13 12 11 10 10 9 8 7 7 7 7 7 8 8 8 9 9 8 7 4 6 8 1 4 4 7 8 7 8 6 7 9 11 12 11 7 4 6 4 3 4 4 4 7 5 5 6 4 6 2 2 10 9 8 8 7 9 9 10 9 8 9 9 10 10 8 7 3 6 4 11 8 8 9 9 15 16 13 13 11 10
14 14 15 15 15 15 14 13 12 11 10 9 9 8 6 6 6 6 6 6 7 8 9 8 7 6 5 8 5 3 2 2 6 8 9 8 7 7 7 7 8 5 4 4 4 3 6 6 3 4 4 2 4 5 5 7 2 3 10 9 9 10 10 11 10 11 9 8 9 7 10 11 10 9 6 10 8 11 8 8 9 6 11 17 15 14 10 8
13 14 15 15 15 14 14 13 12 11 10 9 8 7 6 5 5 5 5 6 7 8 8 8 7 6 7 8 2 5 2 4 7 9 9 7 5 4 3 2 5 5 3 4 2 2 6 5 5 7 4 5 5 3 3 6 3 6 10 9 10 11 12 13 10 10 9 7 7 7 9 11 11 8 8 12 7 11 5 7 8 7 7 15 16 12 10 9
13 13 14 15 15 14 14 13 11 11 10 8 7 6 6 5 4 4 5 6 6 7 7 8 7 5 8 3 5 3 3 6 9 10 8 7 4 2 2 2 4 3 4 7 2 2 5 5 7 9 8 8 6 3 4 5 6 8 9 8 9 9 11 14 12 12 12 10 9 9 7 7 12 10 10 12 7 10 5 6 5 7 6 12 15 11 11 10
12 13 14 14 14 14 13 12 11 11 10 8 5 5 6 6 5 4 5 6 6 6 6 8 7 5 6 3 6 2 5 8 10 9 6 6 5 4 3 3 2 2 4 6 4 2 5 7 9 9 9 9 7 7 5 7 6 8 9 8 7 7 9 13 15 13 13 9 9 8 5 6 11 11 12 12 9 10 7 8 7 5 5 9 13 12 13 10
11 12 13 13 13 13 13 12 11 10 10 8 5 5 6 7 7 5 5 4 4 5 7 10 7 5 2 5 6 5 8 9 9 7 5 6 5 5 5 4 4 5 5 5 6 5 5 8 8 8 9 9 8 7 7 8 7 8 7 7 7 6 9 11 15 12 11 7 10 9 6 6 9 7 13 12 10 9 5 7 6 4 5 7 13 12 12 10
10 11 12 12 11 11 12 13 12 11 9 8 6 6 7 8 7 6 5 3 3 5 6 7 8 10 1 7 8 8 8 6 7 5 3 4 7 3 3 4 5 5 5 6 7 6 7 8 7 8 10 7 7 8 7 6 6 7 6 6 8 7 7 6 13 12 11 8 12 12 7 6 7 9 10 7 7 6 5 5 5 4 6 5 12 12 11 11
9 10 10 10 9 10 12 13 13 12 9 8 8 7 7 8 7 6 5 5 5 6 8 8 8 9 1 7 8 7 4 3 5 4 1 4 7 5 1 6 7 6 7 8 7 8 8 7 6 7 7 6 7 8 6 5 4 3 5 7 7 8 8 3 11 13 13 10 10 12 7 10 11 10 6 11 8 9 8 7 6 5 4 4 9 13 13 12
8 9 9 8 8 10 11 13 13 12 10 8 8 8 10 10 9 9 8 6 5 7 10 10 11 5 3 6 5 5 6 4 3 4 3 2 4 5 5 7 7 6 8 8 8 10 7 5 7 6 5 6 6 5 4 5 6 6 6 6 7 8 10 5 7 10 12 9 7 7 8 11 13 11 7 13 13 10 7 6 4 5 5 5 7 11 13 12
7 7 8 7 6 8 10 12 13 12 10 9 8 10 11 10 9 9 9 7 5 4 2 4 5 2 6 6 4 6 6 2 2 3 3 2 4 6 6 7 6 6 8 6 8 9 5 5 6 4 5 6 4 4 6 9 10 11 10 9 9 8 9 9 4 9 9 6 6 8 10 10 11 12 7 7 9 8 3 3 2 5 6 6 7 9 14 13
6 7 7 6 5 7 9 11 12 12 11 11 11 9 7 5 4 3 6 8 4 4 7 4 4 7 6 6 6 6 5 6 5 1 1 1 4 7 8 10 7 7 8 5 4 4 3 6 3 3 5 6 7 8 10 10 11 13 12 10 11 10 8 11 9 9 8 6 7 9 11 10 9 9 8 9 8 9 4 4 4 7 6 5 4 5 10 13
5 5 6 5 4 5 8 11 12 11 12 14 12 6 3 4 2 3 1 2 2 3 4 7 8 6 4 4 5 5 6 7 4 1 1 2 7 8 5 8 8 6 5 5 4 2 5 6 2 4 6 8 9 11 10 10 12 12 11 9 9 11 9 11 12 9 11 7 6 7 10 11 10 10 10 11 7 7 3 3 3 3 6 5 5 8 6 9
4 4 5 4 4 5 8 10 10 10 13 15 10 7 4 9 7 8 6 1 2 2 4 10 7 6 4 1 4 5 6 3 5 4 0 4 9 7 1 4 7 4 2 4 5 4 5 3 3 3 7 8 9 11 11 10 11 10 9 9 8 8 9 11 11 9 12 7 3 7 9 10 11 12 9 2 3 3 4 5 5 9 13 12 10 13 14 11
4 4 4 4 4 6 8 9 9 10 14 14 8 3 7 9 10 11 9 5 1 4 3 9 5 5 2 2 2 5 8 4 3 6 4 7 10 7 4 6 7 5 5 4 3 4 5 4 8 7 8 10 10 11 12 10 9 8 6 7 8 9 11 9 9 10 10 6 3 8 8 8 9 9 5 7 12 9 10 12 11 13 15 14 12 13 14 10
4 3 4 4 5 7 9 9 9 9 12 12 4 6 9 9 12 14 10 5 2 3 6 6 5 4 3 2 3 7 5 1 4 6 5 8 9 7 6 6 5 4 5 7 7 6 7 8 11 9 9 11 11 10 11 9 7 8 8 7 10 12 13 10 11 16 10 5 2 7 7 7 5 5 3 9 16 15 14 15 15 15 14 14 14 13 12 10
4 4 3 5 6 8 11 11 9 6 8 7 5 7 9 10 11 12 9 5 3 4 1 2 3 4 4 3 7 6 2 3 3 5 5 8 9 7 7 6 5 6 8 10 9 7 4 8 9 10 10 10 11 9 9 8 5 7 8 9 13 14 14 14 13 15 8 1 4 7 6 4 3 6 5 11 16 15 14 14 15 14 15 15 13 12 10 9
4 4 3 5 7 9 11 8 5 6 6 3 7 7 10 10 10 10 7 5 2 4 3 2 0 2 2 4 5 6 2 2 4 4 4 5 7 7 6 5 4 4 8 7 7 5 5 8 9 10 11 11 10 6 7 7 6 4 4 8 13 13 12 13 12 10 6 4 9 11 6 2 7 11 11 14 15 14 13 14 15 13 13 14 11 10 9 8
4 4 4 5 7 9 8 6 8 10 5 5 7 8 9 9 11 10 5 3 3 2 1 3 2 1 1 1 4 6 3 3 2 1 2 5 6 7 6 7 5 4 7 5 4 2 6 11 11 10 11 9 7 7 8 9 8 4 2 7 10 11 10 10 8 5 5 7 10 13 10 1 5 9 11 13 14 13 12 12 13 12 12 12 11 10 9 8
4 4 4 4 5 7 7 8 12 11 7 8 7 8 9 10 10 7 5 1 4 1 1 4 3 2 3 2 4 5 5 5 4 2 4 3 4 6 6 7 10 9 8 6 4 5 8 10 10 8 8 7 8 9 11 10 8 6 6 7 9 10 9 8 7 4 3 5 6 10 11 2 4 5 9 12 12 11 11 11 11 11 11 12 12 10 8 10
4 4 3 2 3 4 6 8 10 9 9 8 7 8 9 9 6 4 4 2 2 1 1 2 1 1 4 5 3 3 3 1 3 4 3 2 1 5 6 6 10 12 7 4 5 3 6 6 5 4 6 7 8 10 12 9 5 6 8 8 8 9 8 7 6 4 4 4 5 9 8 2 3 3 5 8 8 6 6 8 8 8 9 10 11 11 10 9
4 4 3 3 4 5 7 7 7 7 9 8 8 10 10 6 4 5 1 2 1 1 1 1 0 0 5 6 1 3 2 1 5 5 3 3 2 5 6 3 5 11 6 3 5 6 3 4 1 1 6 8 7 10 12 9 8 7 6 6 8 8 7 6 5 4 5 5 6 9 4 5 3 3 5 4 5 3 3 5 5 6 8 9 8 10 10 8
3 3 3 4 5 7 7 5 4 8 8 9 11 10 8 4 5 5 3 2 1 2 0 0 3 2 6 6 1 3 1 2 6 7 4 1 0 7 8 3 4 8 5 1 4 5 5 6 1 3 8 8 8 9 10 12 12 9 5 5 5 4 4 4 4 3 5 5 3 2 6 11 4 0 3 2 5 6 5 5 5 6 8 8 8 8 8 7
2 3 3 4 6 6 7 7 9 9 9 11 10 6 6 4 4 1 4 1 3 3 4 3 4 4 5 6 2 5 5 2 5 5 5 5 2 6 7 7 7 7 5 5 6 5 4 8 7 5 7 10 10 7 7 9 9 8 5 4 3 2 1 1 2 2 4 3 2 2 6 8 4 2 1 3 6 7 6 7 7 7 7 8 8 8 7 8
2 2 3 3 4 6 8 8 8 9 9 9 7 4 5 5 3 2 3 2 1 3 4 4 5 5 5 6 4 6 6 3 6 6 3 5 2 5 8 12 11 8 6 7 7 5 3 9 10 7 4 9 10 6 6 7 6 7 6 5 5 3 1 1 1 1 1 2 4 3 3 5 3 1 3 5 4 5 5 7 8 8 7 7 7 8 7 7
2 3 4 4 5 7 8 7 7 9 9 7 5 3 5 5 4 3 3 5 4 2 2 2 6 4 2 4 4 4 4 2 6 6 4 5 4 5 7 11 13 10 6 7 6 5 5 2 9 10 5 7 10 7 7 9 5 6 7 6 4 3 3 3 1 1 2 1 1 2 1 3 3 1 6 6 2 5 4 6 6 5 6 6 5 6 6 6
3 4 5 6 7 6 5 6 6 8 7 5 5 4 4 3 5 5 4 6 5 5 4 2 6 5 2 1 3 3 2 4 5 4 3 6 6 6 6 8 12 11 7 7 5 5 8 3 8 9 4 6 8 4 5 9 6 4 5 4 4 4 2 1 1 2 4 1 2 2 2 3 3 5 9 7 2 5 5 6 5 5 6 6 5 6 6 6
5 5 6 10 8 3 3 5 5 6 5 4 6 4 2 3 5 5 5 6 5 6 8 4 4 4 1 1 2 5 3 2 5 4 2 5 6 8 8 7 9 10 8 6 5 5 7 4 7 8 3 7 8 6 6 7 5 5 5 4 6 6 4 2 0 2 4 2 1 3 4 4 2 3 4 2 4 5 5 6 5 7 7 6 6 6 7 7
7 6 6 8 5 2 2 3 3 4 4 4 5 4 4 4 6 5 5 6 4 4 8 4 2 4 4 2 3 4 3 2 3 4 2 4 4 8 9 6 9 11 9 7 4 5 7 6 5 7 6 8 5 4 6 6 3 4 6 7 7 5 3 3 2 1 1 1 1 2 5 5 2 1 2 3 5 6 6 6 6 8 8 7 7 7 8 8
8 7 6 3 2 1 3 2 3 5 4 5 4 2 3 5 7 6 6 6 4 4 6 4 4 4 5 5 4 5 6 5 4 5 5 3 3 8 8 6 8 11 10 7 5 4 6 7 2 3 6 6 2 1 5 7 7 6 4 5 5 3 2 3 3 3 3 2 2 3 5 4 2 2 1 3 6 6 7 7 8 8 8 7 7 7 8 8
9 8 3 3 2 1 2 2 4 4 4 6 3 2 3 5 7 6 6 5 4 5 5 5 4 3 4 5 5 5 6 6 6 5 4 4 4 7 9 6 7 10 9 8 6 5 5 6 2 0 1 2 2 5 6 7 9 7 3 5 6 3 3 5 3 3 4 2 2 3 3 2 3 4 4 5 6 7 8 8 7 8 8 7 7 7 8 8
8 5 2 2 1 1 1 3 4 4 5 3 2 3 4 4 6 6 6 4 3 4 5 6 5 3 4 4 4 5 5 5 5 4 4 6 5 6 10 8 6 9 8 7 4 6 5 6 4 5 3 1 3 7 6 5 7 7 5 7 7 5 5 5 2 2 4 3 1 1 3 3 3 3 4 6 6 7 7 7 6 7 7 8 8 8 7 7
7 4 2 1 0 2 1 4 5 5 4 1 3 5 5 4 5 6 4 3 3 3 3 5 6 5 5 5 4 6 6 5 6 5 4 7 6 6 8 8 6 7 7 6 3 7 5 5 5 8 5 4 6 7 6 6 5 5 5 7 6 6 7 5 3 5 5 4 4 2 2 4 3 2 4 6 6 7 7 7 6 6 7 8 8 8 8 7
7 2 4 3 2 1 4 5 3 3 1 3 4 5 3 1 2 5 3 2 4 3 2 3 5 5 5 5 6 6 5 5 7 6 5 7 9 7 7 8 8 8 7 5 7 8 5 4 4 7 5 5 7 7 5 5 6 4 6 8 7 6 6 5 5 6 7 5 4 1 3 3 2 2 4 5 5 6 6 7 7 7 8 8 8 8 8 7
5 1 5 5 3 1 5 3 1 1 4 5 5 6 3 1 2 2 1 3 4 3 2 3 4 5 5 5 6 6 6 5 5 5 5 7 8 8 7 9 10 8 6 5 6 6 5 4 3 5 6 1 6 8 5 7 7 4 6 8 7 7 7 6 5 6 5 7 6 2 2 1 1 2 4 4 5 6 6 7 7 7 7 8 9 9 8 8
4 1 4 4 4 2 5 3 2 3 5 5 5 5 4 4 5 3 4 5 4 3 3 3 4 5 4 3 5 5 6 4 3 5 5 5 6 7 7 8 9 8 7 4 4 4 4 4 4 5 6 1 3 4 2 8 8 5 6 7 7 9 10 7 5 4 3 7 9 5 3 2 1 2 3 4 5 7 7 7 7 7 7 7 8 8 8 8
5 1 4 4 5 4 4 4 1 4 5 4 4 4 3 3 4 5 5 5 5 4 3 2 3 4 3 3 4 4 5 4 4 3 1 4 5 5 4 3 6 8 6 3 4 4 4 5 5 5 5 5 4 3 4 7 7 5 6 8 8 10 11 8 6 4 5 7 8 5 3 2 2 2 4 6 7 8 8 7 7 7 7 7 8 7 7 7
4 2 3 4 4 4 2 2 2 4 5 4 3 2 1 4 4 2 3 4 5 4 4 3 2 2 3 4 4 4 5 5 5 4 3 4 5 3 1 2 5 8 4 2 4 4 3 5 4 4 6 6 5 5 6 6 6 7 7 9 8 8 9 8 5 5 6 6 4 3 3 2 3 4 6 7 8 8 7 7 7 7 7 7 7 8 8 7
4 2 0 2 3 2 3 2 0 3 4 3 2 2 1 3 5 2 2 3 6 4 3 3 3 3 5 5 4 4 4 5 5 4 5 5 1 2 3 2 5 6 5 4 3 3 4 4 2 3 6 6 5 6 6 5 6 8 8 8 7 7 8 7 5 5 7 5 2 3 5 5 4 6 7 7 7 6 5 5 6 6 7 7 6 7 8 9
3 2 3 2 1 0 2 1 2 4 4 1 0 2 3 2 3 3 1 3 4 3 1 1 2 4 5 3 3 4 3 3 4 4 4 5 4 1 3 3 2 4 4 1 2 2 5 3 3 5 7 6 5 3 3 5 6 6 7 6 6 6 6 6 5 6 6 5 4 5 6 5 4 5 7 8 7 6 5 3 3 5 7 8 8 7 8 8
3 2 2 1 2 3 4 4 4 4 2 0 0 2 3 2 2 2 3 3 2 1 1 1 1 4 4 3 3 3 2 3 4 3 3 4 5 5 1 1 2 3 3 4 3 3 3 2 5 7 7 7 4 2 2 4 6 5 7 6 5 5 6 6 6 6 6 7 5 6 8 4 3 4 6 8 8 8 7 5 7 9 9 9 9 9 9 9
4 4 3 2 2 1 3 2 1 2 3 1 1 2 2 2 2 2 2 2 2 2 2 1 3 4 3 2 4 4 5 4 3 3 4 4 4 5 4 3 2 3 4 2 2 1 1 2 5 5 7 5 3 5 0 4 5 7 7 6 5 6 6 6 6 5 6 8 6 7 9 2 3 3 6 7 7 8 9 8 10 10 9 9 9 9 9 10
7 6 3 4 3 2 3 3 3 4 4 3 3 3 3 3 3 2 2 2 2 1 1 2 4 4 1 1 1 3 4 2 2 3 3 3 3 3 3 4 5 6 5 3 1 1 2 4 6 6 6 1 4 4 2 2 5 8 7 5 5 5 5 5 5 5 6 8 8 8 6 2 2 3 6 6 7 8 9 9 9 8 9 9 8 8 9 10
9 6 3 5 3 1 2 4 4 4 2 2 4 5 3 4 4 4 2 1 2 1 2 3 3 1 3 3 1 2 2 2 4 4 3 4 4 3 3 4 4 4 5 4 4 4 2 4 6 6 6 1 4 2 2 3 6 5 3 2 2 4 6 5 5 6 5 4 6 6 3 3 4 6 7 7 8 8 8 7 6 6 8 8 8 8 8 8
Wind_Direction
340 341 340 342 341 338 338 336 335 334 332 332 330 329 327 327 327 326 324 320 320 319 314 311 306 302 295 297 302 314 325 312 296 260 230 254 293 303 254 201 233 215 177 187 205 206 200 210 218 212 225 225 218 243 231 206 228 246 223 248 245 239 246 208 190 271 260 115 89 57 352 289 109 105 136 148 122 125 102 87 78 64 72 78 92 97 90 86
342 342 342 342 341 340 339 338 337 335 334 333 329 328 328 328 328 329 326 324 325 324 322 316 305 303 299 305 315 326 333 306 278 266 231 355 309 278 250 211 209 187 180 203 208 201 200 198 206 207 217 224 200 220 233 189 211 239 228 246 237 255 262 98 43 7 41 53 55 36 233 275 44 116 169 171 164 152 120 113 117 86 91 99 102 108 118 152
344 345 344 343 343 342 341 341 339 337 335 333 329 327 329 330 333 332 328 329 328 329 328 319 312 308 306 312 326 339 329 296 269 241 110 82 19 124 188 190 185 183 192 218 232 208 206 199 199 208 217 226 208 200 212 177 196 231 237 243 229 281 304 78 55 24 33 12 15 359 259 247 54 137 179 176 167 144 116 132 139 134 123 114 119 125 132 157
347 347 347 346 345 344 343 342 339 338 336 332 330 329 332 334 335 331 329 332 331 335 330 324 321 312 314 325 345 356 307 284 283 102 107 113 97 101 119 158 184 189 201 245 278 245 225 219 197 212 228 229 213 201 218 188 187 219 227 242 264 327 325 53 58 31 41 341 345 335 267 223 128 107 91 236 164 121 106 147 141 141 134 122 126 115 103 69
350 350 351 350 349 347 344 343 340 338 336 334 334 335 335 332 334 330 328 333 334 338 330 325 321 314 326 339 359 347 291 279 94 102 115 129 108 95 89 120 183 194 218 262 277 252 238 243 210 216 241 249 224 203 235 226 207 231 238 249 281 333 310 307 234 176 87 319 306 277 276 331 104 123 184 210 108 94 162 160 134 137 136 133 132 109 99 87
355 353 354 354 352 349 346 345 343 340 339 339 337 336 335 334 335 331 331 335 335 335 329 326 318 322 336 343 5 283 280 47 102 118 121 139 131 111 98 99 178 204 233 266 270 241 237 241 216 218 233 252 240 208 222 232 222 241 253 253 272 294 286 329 354 194 100 263 248 248 327 13 272 196 189 131 119 169 169 154 153 139 138 133 133 125 116 109
357 353 355 356 354 350 348 349 347 346 344 342 340 338 337 335 336 334 333 332 334 334 329 326 321 330 338 336 342 249 259 74 105 119 122 156 157 150 172 157 198 223 237 260 258 211 222 226 213 221 226 240 243 224 214 218 219 235 263 272 251 237 265 325 281 227 148 250 253 270 351 300 263 233 151 146 146 168 138 150 169 145 145 147 145 144 135 138
356 354 359 358 355 353 352 353 351 349 346 343 339 336 337 338 338 335 330 328 333 333 328 329 321 326 338 328 294 245 261 76 105 106 116 166 175 200 204 196 207 232 242 247 242 201 215 220 216 224 228 241 252 236 200 203 225 231 251 271 261 228 250 260 246 262 226 236 244 267 293 249 261 310 160 188 152 144 128 152 164 149 148 148 142 136 134 142
356 358 1 -0 358 355 356 356 352 349 345 341 334 333 338 337 337 331 330 331 331 332 328 325 317 319 335 307 276 262 62 74 107 97 120 167 197 208 219 236 222 228 237 242 239 207 215 224 225 249 259 283 300 253 189 206 232 227 235 249 263 245 243 244 240 259 253 235 227 233 251 247 257 284 272 254 139 125 137 153 155 152 139 128 128 125 130 133
358 1 2 2 359 357 358 356 351 348 341 336 333 333 337 337 339 335 334 334 330 330 324 321 322 321 309 273 275 314 69 74 109 115 143 164 188 200 223 248 241 232 214 225 246 225 275 266 241 292 283 281 275 259 232 230 255 280 251 258 270 266 253 243 231 236 240 233 231 228 240 241 241 248 248 256 187 130 150 160 152 160 137 131 133 128 132 134
360 2 4 3 359 359 358 355 352 346 341 339 335 334 339 342 345 342 339 335 326 322 322 325 321 313 279 263 288 49 83 91 109 134 153 164 192 221 236 240 252 254 164 183 240 262 309 309 268 263 273 288 271 257 239 245 332 320 264 276 276 271 271 256 234 231 237 226 223 235 251 245 231 224 226 238 201 135 159 172 156 180 149 136 135 133 135 132
360 3 5 2 360 -0 359 359 356 352 349 343 340 342 343 345 348 347 338 330 324 321 326 322 319 319 282 264 351 55 94 120 124 143 158 174 198 244 248 218 282 293 258 254 185 195 286 302 270 260 292 312 272 260 252 249 278 263 256 274 264 250 252 251 243 234 238 231 209 226 251 249 235 210 241 247 167 122 184 198 167 193 171 136 134 136 133 135
1 4 5 2 0 1 3 5 1 360 357 346 346 348 351 351 346 342 330 328 324 325 327 318 324 309 277 300 67 81 100 118 141 147 167 193 164 136 188 239 302 310 293 304 13 132 268 275 266 274 294 280 264 345 337 256 261 261 245 251 261 250 233 222 226 230 230 231 199 208 233 239 233 201 233 255 142 128 216 236 204 200 187 138 136 138 131 136
1 4 4 3 1 3 6 6 2 0 357 350 344 340 354 352 340 336 325 333 329 327 326 310 314 290 275 41 70 119 106 123 153 155 172 187 155 142 176 202 254 244 259 297 311 275 263 270 266 273 281 264 281 328 291 243 243 258 247 236 243 258 245 206 200 217 223 211 175 203 238 239 243 195 206 243 171 160 207 231 234 208 195 150 138 137 134 137
360 4 4 2 2 4 5 5 1 357 356 355 342 326 338 340 342 334 321 339 327 312 312 301 284 247 240 89 93 119 137 155 163 165 179 188 191 178 172 200 235 241 249 270 275 266 258 267 263 264 264 240 257 281 258 243 224 235 248 241 230 240 261 206 180 201 220 191 165 205 249 247 268 223 206 222 177 170 209 226 228 221 225 163 133 134 138 138
358 3 3 3 4 5 4 3 360 355 353 352 348 333 326 329 331 318 313 317 289 287 292 291 232 215 244 81 121 153 174 178 154 163 208 248 253 222 148 218 240 228 247 259 259 263 252 255 255 265 275 245 235 253 252 254 230 225 238 256 252 242 264 202 161 187 216 211 184 196 250 253 259 252 214 180 155 190 222 234 229 221 245 178 136 136 137 133
357 2 2 4 3 5 5 2 1 359 355 350 349 343 330 323 311 296 289 268 274 271 262 280 256 228 129 97 148 165 149 134 159 181 224 274 285 313 233 234 243 223 231 239 240 248 239 245 256 250 262 251 242 254 259 272 274 261 253 266 271 262 275 194 158 188 207 223 202 180 230 263 269 266 169 139 181 214 204 215 223 212 241 209 154 144 137 137
355 0 2 3 2 5 4 1 1 2 3 354 343 342 331 313 296 290 291 287 285 267 256 269 279 275 128 144 162 129 114 121 186 201 184 216 281 298 271 259 269 249 238 236 227 236 226 219 247 247 250 255 255 265 278 307 323 315 293 283 281 276 275 241 169 188 199 220 230 196 216 240 262 264 172 159 190 204 210 219 216 217 223 218 188 153 141 145
352 357 0 2 359 5 5 1 359 360 1 352 344 343 330 312 297 282 268 256 243 269 288 214 227 55 98 131 121 116 125 148 177 184 202 227 230 237 255 261 273 265 256 245 207 214 232 230 245 279 289 289 315 335 327 333 329 316 310 297 288 282 271 268 222 173 181 206 220 234 237 226 241 243 217 201 180 154 207 278 305 252 229 216 210 158 144 150
350 356 356 357 356 1 3 358 354 355 347 339 343 334 317 306 281 238 224 234 251 1 22 59 103 91 113 120 107 114 134 184 195 180 336 0 245 246 243 235 239 247 259 278 211 186 283 276 278 293 288 318 341 336 327 324 318 306 299 288 282 282 266 269 258 182 183 241 226 233 248 238 242 240 235 239 193 135 159 255 266 256 252 234 215 168 157 153
346 351 351 350 344 346 355 351 348 346 329 327 328 296 326 14 341 27 38 206 87 49 63 62 58 71 77 82 125 178 186 183 159 71 324 330 270 262 233 231 245 239 248 293 295 315 295 281 293 266 292 341 332 317 313 306 309 303 292 285 276 275 265 261 259 187 167 217 239 243 255 248 245 243 233 228 197 138 147 239 260 322 347 4 41 37 53 111
338 347 345 334 325 331 344 346 339 331 320 316 296 258 18 24 1 3 339 293 61 302 130 105 96 95 69 58 160 229 248 197 109 119 178 327 287 282 304 264 285 302 284 262 259 286 278 279 18 332 326 337 315 310 312 306 310 305 301 302 284 285 297 276 261 214 182 182 240 252 256 250 241 241 237 208 92 105 81 51 37 30 23 22 41 54 51 53
330 338 334 320 315 316 324 335 328 318 310 297 277 299 15 9 351 352 322 288 40 322 47 87 87 99 121 222 133 299 276 262 34 71 50 323 303 323 332 293 310 331 319 304 317 319 296 7 36 7 334 320 313 320 320 315 310 308 327 319 301 326 336 307 302 291 242 189 218 257 266 261 244 246 241 75 56 45 52 45 32 30 30 25 36 71 83 67
321 321 322 313 306 305 316 322 307 301 296 287 311 24 5 357 351 354 336 292 130 30 8 37 30 38 20 335 282 291 283 297 355 44 36 325 325 343 324 318 320 301 327 354 346 303 303 21 26 344 327 326 324 329 333 332 322 328 356 349 312 325 336 319 326 322 287 188 229 270 275 272 256 258 243 85 63 49 49 40 30 25 25 27 32 54 85 102
312 311 308 303 300 309 315 309 293 280 277 291 22 20 345 358 357 353 336 283 143 97 48 34 26 52 46 290 278 318 36 117 32 26 7 345 342 327 323 334 304 307 356 357 326 293 323 34 21 337 334 337 326 334 0 359 332 330 347 340 316 316 328 326 335 336 315 263 320 293 255 254 356 2 22 72 66 55 51 40 34 24 22 27 23 30 52 76
299 302 302 298 305 318 313 308 322 299 269 326 35 358 337 357 353 348 324 263 125 104 161 167 337 67 80 260 299 345 298 171 54 22 329 349 335 300 308 319 280 325 3 350 320 312 345 7 12 354 338 331 328 346 12 348 310 314 318 308 310 310 310 316 335 345 331 319 318 307 274 188 36 16 30 61 64 59 53 44 40 30 28 27 15 18 32 49
288 296 301 296 315 331 323 322 330 310 295 40 20 336 340 346 341 342 303 243 88 41 202 108 58 5 24 320 297 295 307 3 22 125 4 1 336 291 286 321 324 345 357 346 330 9 7 353 358 358 339 332 345 357 353 328 303 314 290 267 284 294 294 300 312 320 331 325 310 308 300 224 66 23 28 51 56 51 47 47 43 35 36 32 24 19 14 33
281 289 291 297 322 335 328 316 315 320 359 21 342 328 345 340 337 328 285 336 72 310 303 70 53 298 278 276 282 305 33 8 309 64 28 342 340 303 291 348 347 326 326 320 320 56 52 8 354 359 349 352 0 346 332 316 304 324 319 284 275 277 280 292 291 273 298 309 290 302 309 308 92 30 26 46 47 37 40 47 41 35 35 32 29 25 17 40
282 281 275 285 298 302 311 306 304 326 0 355 332 335 330 324 325 282 267 31 75 241 51 70 118 233 269 252 247 2 43 13 340 13 326 255 92 316 304 357 342 309 291 265 290 352 57 28 1 7 1 6 360 328 312 303 310 327 319 313 307 287 272 269 267 259 262 272 263 275 297 0 99 29 32 57 51 31 38 47 42 38 35 31 29 27 28 37
278 264 253 263 282 303 304 281 278 322 349 343 337 329 311 307 296 266 287 61 112 95 88 288 313 274 294 274 206 15 330 44 7 322 280 191 175 340 334 0 337 308 290 204 268 284 134 125 196 62 24 6 340 321 326 346 356 339 324 338 340 325 309 280 256 244 248 248 249 263 312 66 95 9 19 48 61 47 43 47 38 32 29 28 31 30 32 40
271 251 242 262 295 316 301 283 320 342 342 336 333 316 294 280 255 273 31 64 242 40 279 311 31 334 319 318 358 23 328 69 8 334 349 327 101 23 5 0 358 325 318 19 304 296 143 142 231 72 59 13 336 335 356 11 3 350 350 355 351 349 340 288 247 233 242 240 234 246 68 74 90 29 20 51 73 55 48 53 37 32 29 19 25 29 20 30
258 244 237 267 299 300 292 325 350 337 331 332 327 302 284 281 253 296 59 186 240 9 2 17 18 0 349 323 332 17 352 7 8 359 357 319 351 59 38 28 4 332 349 1 325 320 103 87 25 23 59 22 357 352 2 11 5 356 352 352 0 19 31 233 228 231 239 258 5 61 92 77 86 153 20 27 59 51 50 57 36 34 39 23 23 26 12 9
249 256 253 266 288 276 284 320 332 323 331 327 307 274 277 295 322 2 31 28 9 17 2 336 328 349 350 319 353 7 326 324 353 344 331 318 359 66 49 39 12 343 351 336 322 336 66 83 42 6 31 21 10 11 356 354 6 1 350 359 10 3 30 63 343 338 265 275 344 359 88 99 127 143 334 337 34 43 49 62 42 26 34 32 25 20 19 17
250 257 250 258 274 272 285 307 309 315 327 311 284 265 268 288 0 13 12 36 37 354 25 347 305 306 304 323 14 356 303 30 10 332 332 356 22 29 19 28 17 1 345 330 343 347 315 68 39 14 23 19 15 29 355 335 352 12 352 348 6 15 27 36 20 329 5 76 14 332 56 128 153 208 267 269 11 32 34 61 53 29 27 33 28 20 20 24
248 248 249 258 268 270 274 278 291 311 318 294 265 256 262 302 14 18 10 22 18 346 356 327 286 280 204 150 69 64 2 15 5 338 357 20 26 18 10 23 16 5 358 351 351 337 319 348 36 15 17 34 15 12 3 347 348 10 353 348 12 18 4 328 194 249 299 353 85 71 78 106 151 207 237 245 39 37 27 38 36 30 28 25 23 16 11 14
248 243 248 246 238 233 258 255 279 309 306 272 261 272 336 30 15 9 1 355 359 347 330 302 290 317 357 106 97 98 104 312 339 344 41 74 47 22 27 39 24 14 10 352 331 344 336 340 27 1 359 63 23 340 28 29 348 341 354 2 355 343 328 315 180 212 258 284 86 109 112 119 155 208 247 308 45 36 27 28 27 30 24 17 15 5 6 12
248 231 245 245 210 174 268 255 266 281 276 264 265 298 351 36 25 12 11 357 352 332 316 315 19 338 339 27 43 55 45 309 332 339 6 95 57 12 20 46 41 25 6 343 333 10 338 310 8 3 357 50 35 330 38 49 11 5 3 347 335 330 336 339 343 277 262 82 91 116 120 134 152 208 297 14 35 23 13 11 26 34 21 10 14 5 8 15
266 252 249 247 129 161 256 258 265 255 251 257 243 253 354 36 43 22 12 6 342 311 313 344 34 349 342 356 358 20 8 341 356 4 6 45 34 12 15 23 26 17 5 340 320 8 346 313 359 29 359 16 354 308 28 11 8 34 34 351 348 359 345 344 1 342 340 61 95 82 83 94 94 81 36 25 24 17 7 1 15 28 19 12 17 9 8 13
274 269 233 150 105 282 253 255 262 241 239 264 258 125 58 47 50 28 9 6 346 329 337 8 18 7 9 348 341 17 8 348 359 2 5 18 22 29 28 13 357 1 2 337 331 13 340 304 312 59 11 15 351 26 26 351 355 13 32 26 20 14 327 327 341 321 329 16 109 125 112 78 61 52 37 27 17 16 14 6 12 19 14 12 14 12 9 9
262 266 161 134 70 68 237 262 259 243 244 276 356 64 78 63 58 46 18 358 358 352 354 6 359 355 13 349 352 14 350 340 358 2 30 30 32 47 33 13 349 354 344 309 339 27 332 304 330 317 313 46 37 37 24 349 357 358 7 24 14 0 346 335 325 335 342 351 4 168 165 112 66 21 22 28 18 25 24 9 15 19 15 16 13 12 12 9
263 262 124 125 63 105 246 263 249 245 243 180 62 61 57 39 59 82 69 6 32 39 356 357 0 5 6 353 9 11 340 341 4 12 41 33 35 48 23 6 356 346 326 300 5 37 348 320 327 312 324 49 67 60 33 4 348 334 11 25 1 6 9 343 341 6 356 345 353 10 122 97 69 3 19 30 22 30 28 17 23 22 18 22 18 13 15 12
268 269 120 147 178 196 279 274 250 255 34 71 73 79 80 341 43 95 106 47 60 61 348 354 8 9 17 4 355 356 351 1 7 9 42 46 38 34 15 5 349 327 331 354 22 31 359 304 300 305 323 44 79 91 66 11 317 307 37 28 353 16 24 347 341 347 342 347 354 52 121 91 51 24 24 28 33 35 27 24 26 20 19 22 20 19 19 14
254 130 129 163 167 234 279 266 206 47 72 83 82 83 100 288 22 105 117 27 44 51 8 32 32 18 32 8 337 351 12 11 2 8 47 66 51 39 26 4 343 339 8 18 8 14 352 303 305 312 309 40 121 137 101 21 341 338 46 26 2 16 10 345 327 313 331 0 349 336 109 57 355 61 45 30 46 44 26 26 29 20 17 14 14 19 19 16
284 70 124 158 166 224 286 285 130 105 86 90 88 71 53 25 21 38 68 43 33 38 27 45 39 21 28 346 321 3 20 1 9 23 40 64 59 57 47 13 1 16 37 22 350 350 330 315 331 321 306 304 150 163 74 16 356 356 18 7 6 9 358 345 324 304 346 14 0 357 55 82 142 89 63 34 41 46 25 16 25 21 12 9 9 10 9 12
301 251 129 151 189 230 292 326 37 123 112 106 109 96 88 77 41 23 53 66 49 23 11 40 30 7 8 327 317 19 33 15 19 13 35 94 94 90 75 42 32 34 40 22 336 315 307 315 329 337 336 354 7 340 354 1 345 334 357 4 4 3 359 347 335 346 0 2 11 18 34 91 114 47 38 27 26 35 22 8 15 16 7 5 3 359 0 4
299 238 156 151 197 233 262 335 9 117 132 140 126 108 102 110 100 34 17 81 88 49 11 20 16 353 12 1 342 13 41 39 23 345 356 65 94 96 84 113 71 55 51 342 305 300 308 307 324 355 334 332 351 346 354 1 328 319 350 2 355 356 360 348 344 12 354 340 25 47 336 0 66 28 16 17 19 20 11 5 7 3 1 4 1 354 353 355
287 292 93 140 197 210 168 174 115 104 131 154 145 137 148 118 116 104 350 64 100 90 37 17 5 3 21 21 2 357 11 36 34 5 356 8 57 147 171 141 83 101 160 216 258 272 294 302 13 3 311 313 338 337 345 342 314 326 344 343 339 347 352 351 353 2 348 331 25 41 346 349 27 18 3 8 17 9 359 9 7 357 359 358 354 355 353 352
274 338 28 17 308 50 110 136 97 95 116 138 128 158 167 148 132 134 99 92 101 107 88 39 29 32 29 15 347 337 337 11 26 13 348 340 341 4 169 165 86 131 170 274 12 312 306 333 22 335 310 316 308 295 352 335 312 323 319 309 327 335 334 339 336 344 346 324 328 349 342 350 16 7 356 358 357 349 351 10 10 3 6 357 349 356 357 354
304 341 49 0 337 41 57 46 61 101 138 344 332 174 185 187 146 93 72 99 117 109 83 67 63 56 41 357 327 337 358 1 4 9 349 333 343 353 33 129 86 105 75 23 32 11 325 341 358 330 304 289 254 183 35 321 293 297 296 297 314 314 318 324 321 336 328 299 303 323 318 345 45 358 347 352 347 341 341 359 21 18 8 355 348 356 2 358
336 342 19 316 285 97 95 65 57 170 168 163 215 180 190 205 161 79 59 87 116 119 109 118 100 80 53 341 329 2 32 20 1 15 350 320 338 358 9 15 359 14 30 48 86 39 307 316 342 311 282 274 159 138 154 295 293 294 291 298 312 311 314 311 317 341 321 304 323 325 311 340 87 349 336 346 345 337 333 357 27 23 4 353 349 358 6 1
331 308 321 298 282 121 145 185 222 228 195 187 193 161 169 208 181 128 95 54 61 106 143 121 106 101 134 235 321 19 44 22 329 17 354 296 324 348 344 355 346 335 347 12 20 333 273 306 317 294 292 314 141 166 215 292 295 286 281 283 280 286 299 306 319 325 310 311 322 314 308 356 64 332 329 334 338 334 331 351 17 13 357 347 342 359 11 4
339 299 283 291 290 129 189 197 203 232 231 111 126 138 175 214 168 135 116 49 73 88 76 97 111 186 206 161 98 38 21 312 301 337 312 266 283 287 292 344 352 334 340 354 345 330 306 312 312 308 320 331 160 194 317 294 281 282 317 326 239 257 290 284 277 284 286 299 299 293 315 348 333 322 323 329 334 331 337 4 24 11 346 330 334 0 12 4